Home > Weather > U.S.A. > Albany > Past weeks

Flag for U.S.A. Weather past 2 weeks in Albany, New York, U.S.A.

41 °F

Light rain. Low clouds.

Feels Like: 37 °F
Forecast: 42 / 49 °F
Wind: 6 mph from Southeast

Location: Albany County Airport

Current Time: Dec 2, 2015 at 2:03:45 AM

Latest Report: Dec 2, 2015 at 12:51 AM

Visibility: 7 mi

Pressure: 29.98 "Hg

Humidity: 89%

Dew point: 38 °F

Location of AlbanyLocation

Historic Weather in Albany — Graph


Albany temperature yesterday

Maximum temperature yesterday: 43 °F (at 4:51 PM)
Minimum temperature yesterday: 27 °F (at 12:51 AM)
Average temperature yesterday: 36 °F

Past Weeks' High & Low Weather Summary

High63 °F (Nov 27, 1:51 PM)90% (Nov 19, 8:51 PM)30.79 "Hg (Nov 19, 8:51 PM)
Low22 °F (Nov 23, 11:51 PM)22% (Nov 23, 2:51 PM)29.83 "Hg (Nov 22, 3:51 AM)
Average40 °F64%30.31 "Hg
* Reported Nov 16 11:51 PM — Dec 1 11:51 PM, Albany, Weather by CustomWeather, © 2015

Note: Actual official high and low records may vary slightly from our data, if they occured in-between our weather recording intervals... More about our weather records


Albany weather history for previous 24 hours

Time TempWeatherWind HumidityBarometerVisibility
11:51 PM
Tue, Dec 1
41 °FLight rain. Fog.3 mph89%30.01 "Hg3 mi
9:51 PM40 °FLight rain. Fog.3 mph89%30.05 "Hg3 mi
8:51 PM40 °FDrizzle. Mostly cloudy.6 mph89%30.07 "Hg10 mi
7:51 PM41 °FLight rain. Mostly cloudy.8 mph86%30.09 "Hg10 mi
6:51 PM42 °FLight rain. Mostly cloudy.5 mph76%30.11 "Hg10 mi
5:51 PM42 °FDrizzle. Overcast.6 mph73%30.12 "Hg10 mi
4:51 PM43 °FDrizzle. Mostly cloudy.6 mph71%30.12 "Hg10 mi
3:51 PM42 °FMostly cloudy.No wind79%30.14 "Hg10 mi
2:51 PM40 °FMostly cloudy.No wind83%30.16 "Hg10 mi
1:51 PM41 °FMostly cloudy.No wind80%30.17 "Hg10 mi
12:51 PM38 °FMostly cloudy.No wind83%30.20 "Hg9 mi
11:51 AM38 °FLight rain. Mostly cloudy.3 mph79%30.24 "Hg8 mi
10:51 AM36 °FMostly cloudy.No wind79%30.27 "Hg10 mi
9:51 AM35 °FLight rain. More clouds than sun.No wind75%30.29 "Hg10 mi
8:51 AM33 °FMore clouds than sun.3 mph78%30.29 "Hg10 mi
7:51 AM32 °FCloudy.3 mph79%30.30 "Hg10 mi
6:51 AM31 °FMostly cloudy.3 mph79%30.32 "Hg10 mi
5:51 AM30 °FMostly cloudy.3 mph82%30.30 "Hg10 mi
4:51 AM29 °FOvercast.3 mph82%30.32 "Hg10 mi
3:51 AM28 °FPassing clouds.3 mph81%30.33 "Hg10 mi
2:51 AM28 °FPassing clouds.No wind89%30.34 "Hg10 mi
Weather by CustomWeather, © 2015

See weather overviewHow to use our weather pages